Zurück zum Katalog

GONETS D1M 1

AktivKommunikationPO
NORAD 28909·PAYLOAD·🇷🇺 Russia

Gestartet Dec 21, 2005 von Plesetsk Cosmodrome

Loading…

Nächste Überflüge (nächste 24 Stunden)

TLE

AktuellSource: Space-Track

Epoche: Sep 14, 2026, 14:07 UTC

1 28909U 05048B   26257.58881181  .00000112  00000-0  62260-3 0  9990
2 28909  82.4625 253.1109 0007215 332.8783 136.4677 12.55296193949769

Verfolge GONETS D1M 1 in Echtzeit mit AllMySat

Download on the App Store